Location: Unspecified
(0.0000°N, 0.0000°E)
Time: 17:54:59
(UTC+00:00)

Hubble Space Telescope - Pass Details

Date: 08 May 2021
Orbit: 535 x 539 km, 28.5° (Epoch: 14 May)

Event Time Altitude Azimuth Distance (km) Brightness Sun altitude
Rises 19:08:37 0° 291° (WNW) 2,670 6.1 -17.2°
Reaches altitude 10° 19:10:56 10° 285° (WNW) 1,781 4.7 -17.7°
Maximum altitude 19:14:55 48° 210° (SSW) 700 1.4 -18.7°
Enters shadow 19:16:14 34° 159° (SSE) 888 1.5 -19.0°
